Lethbridge Airport, Alberta

6:52 PM MDT on September 25, 2016 (GMT -0600)
Lethbridge Airport

Weather History for CYQL - October, 2011

Change the Weather History Date:

Monday, October 31, 2011

  Actual Average Record
Temperature  
Mean Temperature 40 °F -  
Max Temperature 49 °F 45 °F 71 °F (2008)
Min Temperature 32 °F 23 °F -7 °F (2003)
Degree Days  
Heating Degree Days 24    
Moisture  
Dew Point 31 °F    
Average Humidity 67    
Maximum Humidity 100    
Minimum Humidity 26    
Precipitation  
Precipitation 0.02 in - - ()
Sea Level Pressure  
Sea Level Pressure 29.91 in    
Wind  
Wind Speed 12 mph ()    
Max Wind Speed 21 mph    
Max Gust Speed 30 mph    
Visibility 12.7 miles    
Events Rain    
Averages and records for this station are not official NWS values.
T = Trace of Precipitation, MM = Missing Value Source: Averaged Metar Reports

Daily Weather History Graph

Daily Weather History Graph

Search for Another Location

Airport or City:

Trip Planner

Search our weather history database for the weather conditions in past years. The results will help you decide how hot, cold, wet, or windy it might be!

Date:

Astronomy

Oct. 31, 2011 Rise Set
Actual Time 8:18 AM MDT 6:10 PM MDT
Civil Twilight 7:44 AM MDT 6:44 PM MDT
Nautical Twilight 7:06 AM MDT 7:22 PM MDT
Astronomical Twilight 6:29 AM MDT 7:59 PM MDT
Moon 1:40 PM MDT (10/31) 10:40 PM MDT (10/31)
Length of Visible Light 10h 59m
Length of Day
9h 52m
Waxing Crescent, 30% of the Moon is Illuminated
Oct 31
Waxing Crescent
Nov 2
First Quarter
Nov 10
Full
Nov 18
Last Quarter
Nov 24
New

Hourly Weather History & Observations

Time (MDT) Temp. Windchill Dew Point Humidity Pressure Visibility Wind Dir Wind Speed Gust Speed Precip Events Conditions
12:00 AM 46 °F - 38 °F 64% 29.77 in 10 mi West 13.8 mph - -  
12:00 AM 46.4 °F 40.4 °F 37.4 °F 71% 29.77 in 9.0 mi West 13.8 mph - N/A   Mostly Cloudy
1:00 AM 39.2 °F 35.0 °F 35.6 °F 87% 29.78 in 9.0 mi WSW 5.8 mph - N/A   Scattered Clouds
2:00 AM 37.4 °F 31.4 °F 33.8 °F 87% 29.79 in 9.0 mi SW 8.1 mph - N/A   Partly Cloudy
2:25 AM 48.2 °F - 39.2 °F 71% 29.75 in 9.0 mi West 19.6 mph - N/A   Mostly Cloudy
3:00 AM 48.2 °F - 37.4 °F 66% 29.75 in 9.0 mi WSW 19.6 mph 26.5 mph N/A   Partly Cloudy
4:00 AM 46.4 °F 39.5 °F 37.4 °F 71% 29.76 in 9.0 mi West 17.3 mph - N/A   Scattered Clouds
5:00 AM 44.6 °F 38.4 °F 32.0 °F 61% 29.79 in 9.0 mi North 12.7 mph - N/A   Mostly Cloudy
6:00 AM 42 °F - 29 °F 48% 29.81 in 10 mi NE 13.8 mph - -   Overcast
6:00 AM 41.0 °F 33.5 °F 28.4 °F 61% 29.81 in 15.0 mi NE 13.8 mph 19.6 mph N/A   Mostly Cloudy
7:00 AM 39.2 °F 35.9 °F 30.2 °F 70% 29.81 in 15.0 mi North 4.6 mph - N/A   Mostly Cloudy
8:00 AM 39.2 °F 31.6 °F 28.4 °F 65% 29.88 in 15.0 mi NW 12.7 mph 20.7 mph N/A   Unknown
8:35 AM - - - N/A% - 15.0 mi NE 4.6 mph - N/A   Overcast
8:50 AM - - - N/A% - 20.0 mi East 10.4 mph - N/A   Mostly Cloudy
9:00 AM 33.8 °F 28.6 °F 33.8 °F 100% 29.93 in 20.0 mi South 5.8 mph - N/A   Mostly Cloudy
10:00 AM 33.8 °F 27.0 °F 33.8 °F 100% 29.96 in 20.0 mi WSW 8.1 mph - N/A   Mostly Cloudy
11:00 AM 35.6 °F 28.0 °F 35.6 °F 100% 29.97 in 30.0 mi WSW 10.4 mph - N/A   Mostly Cloudy
12:00 PM 40 °F - 35 °F 77% 29.96 in 10 mi West 10.4 mph - -   Clear
12:00 PM 41.0 °F 33.9 °F 35.6 °F 81% 29.95 in 30.0 mi West 12.7 mph - N/A   Scattered Clouds
1:00 PM 42.8 °F 38.0 °F 35.6 °F 76% 29.96 in 30.0 mi West 8.1 mph - N/A   Scattered Clouds
2:00 PM 44.6 °F 38.1 °F 33.8 °F 66% 29.96 in 30.0 mi WSW 13.8 mph - N/A   Scattered Clouds
3:00 PM 46.4 °F 39.2 °F 32.0 °F 57% 29.93 in 40.0 mi WSW 18.4 mph - N/A   Scattered Clouds
4:00 PM 46.4 °F 39.0 °F 28.4 °F 50% 29.94 in 30.0 mi West 19.6 mph - N/A   Partly Cloudy
5:00 PM 46.4 °F 42.4 °F 24.8 °F 43% 29.96 in 30.0 mi NNE 8.1 mph 29.9 mph N/A   Mostly Cloudy
5:05 PM - - - N/A% - 30.0 mi WNW 16.1 mph 24.2 mph N/A Rain Light Rain Showers
5:52 PM - - - N/A% - 30.0 mi West 18.4 mph - N/A   Mostly Cloudy
6:00 PM 45 °F - 21 °F 26% 30.00 in 10 mi West 16.1 mph - -   Overcast
6:00 PM 44.6 °F 37.4 °F 23.0 °F 43% 29.99 in 30.0 mi West 16.1 mph 21.9 mph N/A   Mostly Cloudy
7:00 PM 39.2 °F 29.3 °F 24.8 °F 56% 30.02 in 15.0 mi West 20.7 mph - N/A   Partly Cloudy
8:00 PM 37.4 °F 28.2 °F 24.8 °F 60% 30.04 in 15.0 mi WSW 16.1 mph 24.2 mph N/A   Clear
9:00 PM 35.6 °F 25.9 °F 24.8 °F 65% 30.09 in 15.0 mi WSW 16.1 mph - N/A   Clear
10:00 PM 37.4 °F 27.5 °F 23.0 °F 56% 30.10 in 15.0 mi West 18.4 mph 27.6 mph N/A   Clear
11:00 PM 37.4 °F 27.8 °F 24.8 °F 60% 30.11 in 9.0 mi WSW 17.3 mph - N/A   Overcast